McCall, ID

1:46 PM MST on December 18, 2017 (GMT -0700)
McCall

Weather History for KMYL - September, 2013

Change the Weather History Date:

Tuesday, September 17, 2013

  Actual Average Record
Temperature  
Mean Temperature 55 °F 50 °F  
Max Temperature 65 °F 67 °F 92 °F (1981)
Min Temperature 44 °F 33 °F 17 °F (1988)
Degree Days  
Heating Degree Days 10 15  
Month to date heating degree days 49 206  
Since 1 July heating degree days 96 534  
Cooling Degree Days 0 0  
Month to date cooling degree days 6 0  
Year to date cooling degree days 186 25  
Growing Degree Days 4 (Base 50)    
Moisture  
Dew Point 41 °F    
Average Humidity 65    
Maximum Humidity 86    
Minimum Humidity 43    
Precipitation  
Precipitation 0.02 in 0.03 in 0.89 in (1985)
Month to date precipitation 0.46 0.46  
Year to date precipitation 12.03 13.50  
Sea Level Pressure  
Sea Level Pressure 29.73 in    
Wind  
Wind Speed 5 mph (West)    
Max Wind Speed 24 mph    
Max Gust Speed 36 mph    
Visibility 10 miles    
Events Rain    
T = Trace of Precipitation, MM = Missing Value Source: NWS Daily Summary

Daily Weather History Graph

Daily Weather History Graph

Search for Another Location

Airport or City:

Trip Planner

Search our weather history database for the weather conditions in past years. The results will help you decide how hot, cold, wet, or windy it might be!

Date:

Astronomy

Sep. 17, 2013 Rise Set
Actual Time 7:25 AM MDT 7:50 PM MDT
Civil Twilight 6:56 AM MDT 8:20 PM MDT
Nautical Twilight 6:21 AM MDT 8:54 PM MDT
Astronomical Twilight 5:46 AM MDT 9:30 PM MDT
Moon 6:42 PM MDT (9/17) 5:22 AM MDT (9/17)
Length of Visible Light 13h 23m
Length of Day
12h 24m
Waxing Gibbous, 96% of the Moon is Illuminated
Sep 17
Waxing Gibbous
Sep 19
Full
Sep 26
Last Quarter
Oct 4
New
Oct 11
First Quarter

Hourly Weather History & Observations

Time (MDT) Temp. Windchill Dew Point Humidity Pressure Visibility Wind Dir Wind Speed Gust Speed Precip Events Conditions
12:51 AM 53.1 °F - 36.0 °F 52% 29.80 in 10.0 mi North 4.6 mph - N/A   Clear
1:51 AM 46.9 °F - 39.0 °F 74% 29.80 in 10.0 mi Calm Calm - N/A   Clear
2:51 AM 45.0 °F - 37.9 °F 76% 29.79 in 10.0 mi Calm Calm - N/A   Clear
3:51 AM 53.1 °F - 39.9 °F 61% 29.75 in 10.0 mi North 5.8 mph - N/A   Clear
4:51 AM 51.1 °F - 39.9 °F 66% 29.73 in 10.0 mi North 5.8 mph - N/A   Clear
5:51 AM 45.0 °F 43.5 °F 39.0 °F 80% 29.73 in 10.0 mi SW 3.5 mph - N/A   Mostly Cloudy
6:51 AM 46.0 °F 43.9 °F 39.0 °F 76% 29.72 in 10.0 mi West 4.6 mph - 0.00 in   Overcast
7:51 AM 51.1 °F - 36.0 °F 56% 29.71 in 10.0 mi Calm Calm - N/A   Mostly Cloudy
8:51 AM 46.9 °F - 39.9 °F 77% 29.75 in 10.0 mi Calm Calm - N/A   Overcast
9:51 AM 54.0 °F - 39.9 °F 59% 29.70 in 10.0 mi Calm Calm - N/A   Partly Cloudy
10:51 AM 57.9 °F - 42.1 °F 56% 29.65 in 10.0 mi Calm Calm - N/A   Mostly Cloudy
11:51 AM 60.1 °F - 45.0 °F 57% 29.64 in 10.0 mi Calm Calm - N/A   Partly Cloudy
12:51 PM 62.1 °F - 41.0 °F 46% 29.63 in 10.0 mi South 6.9 mph - N/A   Partly Cloudy
1:51 PM 64.0 °F - 43.0 °F 46% 29.64 in 10.0 mi NW 6.9 mph - N/A   Partly Cloudy
2:51 PM 64.0 °F - 42.1 °F 45% 29.63 in 10.0 mi West 9.2 mph - N/A   Clear
3:51 PM 63.0 °F - 42.1 °F 46% 29.62 in 10.0 mi West 6.9 mph - N/A   Clear
4:51 PM 62.1 °F - 39.0 °F 43% 29.62 in 10.0 mi South 10.4 mph - N/A   Clear
5:51 PM 60.1 °F - 39.0 °F 46% 29.67 in 10.0 mi SW 13.8 mph 19.6 mph N/A   Mostly Cloudy
6:51 PM 53.1 °F - 43.0 °F 69% 29.70 in 10.0 mi ESE 9.2 mph - 0.02 in   Partly Cloudy
7:51 PM 52.0 °F - 44.1 °F 74% 29.70 in 10.0 mi Calm Calm - N/A   Mostly Cloudy
8:51 PM 48.9 °F - 42.1 °F 77% 29.76 in 10.0 mi WNW 8.1 mph - 0.00 in Rain Light Rain
9:09 PM 48.2 °F - 42.8 °F 82% 29.81 in 10.0 mi Calm Calm - 0.00 in   Overcast
9:51 PM 48.0 °F - 41.0 °F 77% 29.75 in 10.0 mi Calm Calm - 0.00 in   Overcast
10:51 PM 48.0 °F - 41.0 °F 77% 29.76 in 10.0 mi WSW 4.6 mph - N/A   Overcast
10:57 PM 46.4 °F - 41.0 °F 81% 29.83 in 10.0 mi Calm Calm - N/A   Overcast
11:14 PM 46.4 °F - 41.0 °F 81% 29.83 in 10.0 mi Calm Calm - N/A   Overcast
11:38 PM 46.4 °F 42.9 °F 42.8 °F 87% 29.83 in 10.0 mi WNW 6.9 mph - N/A   Overcast
11:51 PM 46.0 °F 41.9 °F 43.0 °F 89% 29.78 in 10.0 mi WNW 8.1 mph - N/A   Overcast